Date String (YYYY-MM-DD hh:mm:ss) UTC,Instrument flags,Ambient pressure (hPa),Sample flow (lpm),Bypass flow (lpm),Sample temperature (°C),Ambient temperature (°C),ASC tube jacket temperature (°C),LED temperature (°C),Box temperature (°C),Sample RH (%),Span deviation,Mass concentration (μg/m³),Mass concentration (μg/m³),Mass concentration (μg/m³)
DateTimeUTC,F1_M11,P_M11,Q1_M11,Q2_M11,T1_M11,T2_M11,T3_M11,T4_M11,T5_M11,U1_M11,ZSPAN_M11,X0_M11,X2_M11,X1_M11
2023-01-17 18:00:00,,0815.4,4.99,0.00,22.9,22.3,00.0,31.7,24.7,14.4,-002.1,0009.48,0006.61,0006.25
2023-01-17 18:01:00,,0815.3,5.00,0.00,22.9,22.0,00.0,31.7,24.7,14.6,-002.6,0009.66,0006.73,0006.36
2023-01-17 18:02:00,,0815.3,5.01,0.00,22.9,21.8,00.0,31.7,24.7,14.5,-002.3,0009.82,0006.85,0006.45
2023-01-17 18:03:00,,0815.2,5.00,0.00,22.9,21.7,00.0,31.7,24.7,14.4,-002.4,0010.11,0007.02,0006.57
2023-01-17 18:04:00,,0815.2,5.01,0.00,22.9,21.6,00.0,31.7,24.7,14.3,-002.3,0010.33,0007.13,0006.67
2023-01-17 18:05:00,,0815.2,5.01,0.00,22.9,21.6,00.0,31.7,24.7,14.3,-002.4,0010.69,0007.23,0006.75
2023-01-17 18:06:00,,0815.5,4.99,0.00,22.9,21.6,00.0,31.7,24.7,14.2,-002.4,0010.73,0007.28,0006.81
2023-01-17 18:07:00,,0815.3,4.99,0.00,22.9,21.6,00.0,31.7,24.7,14.3,-002.1,0010.80,0007.36,0006.88
2023-01-17 18:08:00,,0815.1,5.00,0.00,22.9,21.6,00.0,31.7,24.7,14.3,-002.0,0011.17,0007.45,0006.94
2023-01-17 18:09:00,,0815.1,5.00,0.00,22.9,21.6,00.0,31.7,24.7,14.1,-002.0,0011.45,0007.35,0006.85
2023-01-17 18:10:00,,0815.1,5.01,0.00,22.9,21.7,00.0,31.7,24.7,14.3,-002.0,0011.57,0007.24,0006.77
2023-01-17 18:11:00,,0814.9,5.01,0.00,22.9,21.7,00.0,31.7,24.7,14.3,-001.5,0011.63,0007.25,0006.77
2023-01-17 18:12:00,,0814.9,4.99,0.00,22.9,21.7,00.0,31.7,24.7,14.2,-001.6,0011.56,0007.21,0006.73
2023-01-17 18:13:00,,0814.9,5.00,0.00,22.9,21.7,00.0,31.7,24.8,14.4,-001.9,0011.47,0007.17,0006.71
2023-01-17 18:14:00,,0814.9,5.00,0.00,22.9,21.7,00.0,31.7,24.8,14.3,-002.1,0011.32,0007.11,0006.68
2023-01-17 18:15:00,,0814.8,5.00,0.00,22.9,21.7,00.0,31.7,24.8,14.4,-002.5,0011.48,0007.14,0006.69
2023-01-17 18:16:00,,0814.8,5.00,0.00,22.9,21.7,00.0,31.7,24.8,14.3,-002.2,0011.56,0007.15,0006.72
2023-01-17 18:17:00,,0815.0,5.02,0.00,22.9,21.8,00.0,31.8,24.8,14.3,-002.0,0011.59,0007.18,0006.75
2023-01-17 18:18:00,,0815.1,5.00,0.00,22.9,21.8,00.0,31.8,24.8,14.3,-002.0,0011.71,0007.22,0006.77
2023-01-17 18:19:00,,0814.9,4.99,0.00,23.0,21.8,00.0,31.8,24.8,14.4,-001.8,0011.56,0007.25,0006.83
2023-01-17 18:20:00,,0815.1,5.00,0.00,23.0,21.8,00.0,31.8,24.8,14.6,-001.9,0011.66,0007.38,0006.95
2023-01-17 18:21:00,,0815.0,4.99,0.00,23.0,21.8,00.0,31.8,24.8,14.4,-002.1,0011.57,0007.50,0007.04
2023-01-17 18:22:00,,0814.6,5.02,0.00,23.0,21.8,00.0,31.8,24.8,14.4,-001.8,0011.57,0007.59,0007.09
2023-01-17 18:23:00,,0814.7,5.01,0.00,23.0,21.8,00.0,31.8,24.9,14.5,-001.5,0011.80,0007.70,0007.16
2023-01-17 18:24:00,,0814.5,5.00,0.00,23.0,21.8,00.0,31.8,24.9,14.6,-001.3,0012.13,0007.83,0007.25
2023-01-17 18:25:00,,0814.4,5.00,0.00,23.0,21.8,00.0,31.8,24.9,14.5,-000.9,0012.23,0007.90,0007.33
2023-01-17 18:26:00,,0814.4,5.02,0.00,23.0,21.8,00.0,31.8,24.9,14.6,-000.4,0012.46,0007.96,0007.40
2023-01-17 18:27:00,,0814.4,4.99,0.00,23.0,21.8,00.0,31.8,24.9,14.6,-000.6,0012.38,0008.06,0007.49
2023-01-17 18:28:00,,0814.3,5.00,0.00,23.0,21.8,00.0,31.8,24.9,14.5,-001.2,0012.62,0008.20,0007.59
2023-01-17 18:29:00,,0814.4,5.02,0.00,23.0,21.8,00.0,31.8,24.9,14.6,-001.4,0013.21,0008.25,0007.67
2023-01-17 18:30:00,,0814.4,5.01,0.00,23.0,21.8,00.0,31.8,24.9,14.4,-001.3,0013.23,0008.20,0007.61
2023-01-17 18:31:00,,0814.2,5.00,0.00,23.0,21.8,00.0,31.8,24.9,14.4,-001.2,0012.89,0008.13,0007.53
2023-01-17 18:32:00,,0814.3,5.00,0.00,23.0,21.8,00.0,31.8,24.9,14.2,-001.3,0012.68,0008.00,0007.44
2023-01-17 18:33:00,,0814.5,5.00,0.00,23.0,21.8,00.0,31.8,24.9,14.1,-001.7,0012.45,0007.87,0007.35
2023-01-17 18:34:00,,0814.2,5.01,0.00,23.0,21.8,00.0,31.8,24.9,13.9,-001.8,0012.15,0007.70,0007.24
2023-01-17 18:35:00,,0814.3,5.00,0.00,23.0,21.9,00.0,31.8,24.9,13.9,-001.7,0011.77,0007.46,0007.06
2023-01-17 18:36:00,,0814.4,5.00,0.00,23.1,21.9,00.0,31.9,24.9,14.1,-001.9,0011.55,0007.31,0006.91
2023-01-17 18:37:00,,0814.0,5.00,0.00,23.1,21.9,00.0,31.9,24.9,14.0,-001.9,0011.02,0007.10,0006.72
2023-01-17 18:38:00,,0814.1,5.00,0.00,23.1,21.9,00.0,31.9,24.9,14.0,-001.6,0010.60,0006.88,0006.51
2023-01-17 18:39:00,,0814.0,5.00,0.00,23.1,21.8,00.0,31.9,24.9,14.1,-001.1,0010.24,0006.65,0006.30
2023-01-17 18:40:00,,0814.1,5.01,0.00,23.1,21.8,00.0,31.9,24.9,14.3,-000.5,0009.45,0006.44,0006.12
2023-01-17 18:41:00,,0814.0,5.00,0.00,23.1,21.9,00.0,31.9,24.9,14.2,-000.9,0009.15,0006.33,0006.01
2023-01-17 18:42:00,,0814.0,5.00,0.00,23.1,21.9,00.0,31.9,24.9,13.9,-000.8,0008.97,0006.22,0005.91
2023-01-17 18:43:00,,0814.0,5.00,0.00,23.1,21.9,00.0,31.9,24.9,14.0,-001.3,0008.87,0006.14,0005.85
2023-01-17 18:44:00,,0814.0,4.98,0.00,23.1,21.9,00.0,31.9,24.9,14.2,-001.2,0008.76,0006.08,0005.80
2023-01-17 18:45:00,,0814.0,5.00,0.00,23.1,21.9,00.0,31.9,25.0,14.0,-001.2,0008.70,0006.05,0005.78
2023-01-17 18:46:00,,0814.2,4.99,0.00,23.1,21.9,00.0,31.9,24.9,14.0,-001.4,0008.73,0006.05,0005.78
2023-01-17 18:47:00,,0814.0,5.00,0.00,23.1,21.9,00.0,31.9,25.0,14.1,-001.1,0009.42,0006.04,0005.76
2023-01-17 18:48:00,,0813.9,5.00,0.00,23.1,21.8,00.0,31.9,25.0,14.1,-001.3,0009.45,0006.05,0005.77
2023-01-17 18:49:00,,0813.8,5.00,0.00,23.1,21.8,00.0,31.9,24.9,14.0,-001.8,0009.47,0006.05,0005.77
2023-01-17 18:50:00,,0814.1,5.00,0.00,23.1,21.8,00.0,31.9,24.9,14.0,-002.1,0009.56,0006.08,0005.77
2023-01-17 18:51:00,,0814.2,4.99,0.00,23.1,21.8,00.0,31.9,24.9,14.1,-001.7,0009.56,0006.09,0005.77
2023-01-17 18:52:00,,0814.1,5.00,0.00,23.1,21.8,00.0,31.9,24.9,14.2,-001.3,0009.47,0006.04,0005.73
2023-01-17 18:53:00,,0814.2,5.00,0.00,23.1,21.8,00.0,31.9,24.9,14.1,-001.8,0009.34,0006.00,0005.69
2023-01-17 18:54:00,,0813.9,5.01,0.00,23.1,21.7,00.0,31.9,24.9,14.2,-000.5,0009.28,0005.97,0005.68
2023-01-17 18:55:00,,0813.7,5.00,0.00,23.1,21.6,00.0,31.9,24.9,14.3,-001.6,0009.24,0005.96,0005.66
2023-01-17 18:56:00,,0813.6,5.01,0.00,23.0,21.6,00.0,31.9,24.9,14.3,-001.5,0009.20,0005.94,0005.65
2023-01-17 18:57:00,,0813.6,5.00,0.00,23.0,21.6,00.0,31.9,24.8,14.2,-001.5,0009.09,0005.92,0005.64
2023-01-17 18:58:00,,0813.6,5.00,0.00,23.0,21.6,00.0,31.9,24.8,14.2,-001.5,0008.38,0005.87,0005.61
2023-01-17 18:59:00,,0813.5,5.00,0.00,23.0,21.6,00.0,31.9,24.8,14.4,-000.3,0008.53,0005.83,0005.59
